Regional Weather Roundup
Issued by NWS

Home | Current Version | Previous Version | Graphics & Text | Print | Product List | Glossary On
Versions: 1 2 3 4 5 6 7 8 9 10 11 12 13 14 15 16 17 18 19 20 21 22 23 24 25 26 27 28 29 30 31 32 33 34 35 36 37 38 39 40 41 42 43 44 45 46 47 48 49 50
000
ASUS43 KTOP 300708
RWRKS

WEATHER ROUNDUP FOR KANSAS
NATIONAL WEATHER SERVICE GOODLAND KS
200 AM CDT TUE JUN 30 2015

NOTE:  "FAIR" INDICATES FEW OR NO CLOUDS BELOW 12,000 FEET WITH NO
SIGNIFICANT WEATHER AND/OR OBSTRUCTIONS TO VISIBILITY.

KSZ001>006-013>018-027>032-041>047-300800-
NORTHWEST KANSAS

CITY           SKY/WX    TMP DP  RH WIND       PRES   REMARKS
GOODLAND       CLEAR     66  55  67 SW9       30.10F
HAYS           CLEAR     66  50  55 NW3       30.02R
HILL CITY      CLEAR     66  54  65 CALM      30.03R
RUSSELL        CLEAR     70  58  65 SE10      30.00R
$$

KSZ061>065-074>080-084>089-300800-
SOUTHWEST KANSAS

CITY           SKY/WX    TMP DP  RH WIND       PRES   REMARKS
DODGE CITY     CLEAR     67  55  65 S7        30.05F
ELKHART          N/A     72  53  51 SW5         N/A
GARDEN CITY    CLEAR     67  59  75 W5        30.06F
GREAT BEND     CLEAR     70  57  64 S5        30.02S
LIBERAL        CLEAR     70  59  68 S9          N/A
PRATT          CLEAR    N/A N/A N/A SE3       30.03F
$$

KSZ066>073-081>083-090>101-300800-
SOUTHEAST KANSAS

CITY           SKY/WX    TMP DP  RH WIND       PRES   REMARKS
CHANUTE        CLEAR     68  63  84 SW7       29.96F
COFFEYVILLE    CLEAR     68  66  93 CALM      29.96S
HUTCHINSON     CLEAR     69  59  70 CALM      30.00F
MEDICINE LODGE   N/A     69  60  73 E3        30.00S
NEWTON         CLEAR     72  55  56 SW7       30.03S
PARSONS        CLEAR     66  66 100 CALM      29.97F
WICHITA INTL   PTCLDY    72  60  66 CALM      29.99S
WICHITA JABRA  CLEAR     74  59  59 SW9       29.99F
WICHITA MCCONL CLEAR     71  60  68 SW1       29.99F
WINFIELD       CLEAR     66  61  84 CALM      30.00S
$$

KSZ007>012-019>026-033>040-048>060-102>105-300800-
NORTHEAST KANSAS

CITY           SKY/WX    TMP DP  RH WIND       PRES   REMARKS
CONCORDIA      CLEAR     71  58  63 S8        29.98R
EMPORIA        CLOUDY    68  59  73 W5        29.97S
LAWRENCE       PTCLDY    65  63  93 CALM      29.94S
MANHATTAN      CLEAR     65  63  93 CALM      29.96S
MARYSVILLE     CLEAR     64  63  94 CALM      29.95S
OLATHE IND     CLEAR     71  65  81 CALM      29.95S
OLATHE EXE     CLEAR     69  66  90 CALM      29.94S
SALINA         CLEAR     70  59  68 S3        29.99R
TOPEKA BILLARD CLEAR     70  67  90 CALM      29.94S
TOPEKA FORBES  CLEAR     70  63  78 CALM      29.95S
$$



USA.gov is the U.S. government's official web portal to all federal, state and local government web resources and services.